User: anonymous   Login
Location: ???????
(55.4362°N, 38.1183°E)
Time: 17:00:53
(UTC+00:00)
Language:

Cosmos 2297 - Orbit

View from above orbital plane
View from above orbital plane
View from above satellite
View from above satellite

Ground track
Ground track

The orbit data is extracted from the following two-line orbital elements,

1 23404U 94077A   21258.76410465  .00000103  00000-0  79584-4 0  9992
2 23404  71.0097 284.8985 0016924 307.3400  52.6179 14.13543857383287
Epoch (UTC): 15 September 2021 18:20:18
Eccentricity: 0.0016924
inclination: 71.0097°
perigee height: 835 km
apogee height: 859 km
right ascension of ascending node: 284.8985°
argument of perigee: 307.3400°
revolutions per day: 14.13543857
mean anomaly at epoch: 52.6179°
orbit number at epoch: 38328

The dashed part of the orbit path shows where the satellite is in the earth's shadow,  

DLR